Weather in Dunay

Russia / Saint-Petersburg and Leningrad Oblast     59°58′36″N   30°56′11″E
temp.,
°C
wind,
m/s
gust,
m/s
humid.,
%
clouds,
%
prec.,
mm/h
press.,
hPa
HPBL,
m
8 march, mon
mon800:00−7nne71291100 0.8 997862
03:00−8n61186100 0.9 1001775
06:00−10nne51189100 0.1 1004682
09:00−11nne4989100 0.1 1008597
12:00−10n4886100 0.1 1011638
15:00−9n4786100 0.1 1013643
18:00−11nnw3792100 0.1 1014483
21:00−13nnw259696 0.2 1016137
9 march, tue
tue900:00−14ene249699 0.2 1017142
03:00−17ne229793 0.2 101820
06:00−19e229897 0.0 101951
09:00−20ene249797 0.1 1021180
12:00−18ene248972 0.0 1022313
15:00−17ene358739 0.0 1023317
18:00−19ene35940 0.0 1023212
21:00−20ene37970 0.0 1025169
10 march, wed
wed1000:00−21e36940 0.0 1027129
03:00−23ene35920 0.0 1028103
06:00−23e23900 0.0 102841
09:00−21e23865 0.0 102988
12:00−15e237363 0.0 1030227
15:00−12ene227247 0.0 1029239
18:00−15ene228412 0.0 102952
21:00−18e228135 0.0 102922
11 march, thu
thu1100:00−18ese237991 0.0 102926
03:00−18se238974 0.0 102834
06:00−18se25910 0.0 1026101
09:00−15se410790 0.0 1025305
12:00−9sse5116531 0.0 1023639
15:00−7s5108165 0.0 1021669
18:00−8s41189100 0.0 1019519
21:00−9sse4138968 0.0 1017472
12 march, fri
fri1200:00−9sse4139267 0.0 1015447
03:00−10sse4129383 0.0 1013447
06:00−11sse5149188 0.0 1010435
09:00−10se6148460 0.0 1007498
12:00−7se612790 0.0 1005640
15:00−6se6118335 0.0 1003897
18:00−7se61288100 0.1 1001845
21:00−7se51389100 0.2 999720